Fort Sill, OK

5:14 PM CDT on April 22, 2018 (GMT -0500)
Post Army Air Field

Weather History for KFSI - May, 2013

Change the Weather History Date:

Friday, May 3, 2013

  Actual Average Record
Temperature  
Mean Temperature 51 °F -  
Max Temperature 64 °F 75 °F 94 °F (1955)
Min Temperature 38 °F 52 °F 33 °F (1954)
Degree Days  
Heating Degree Days 14    
Growing Degree Days 1 (Base 50)    
Moisture  
Dew Point 28 °F    
Average Humidity 40    
Maximum Humidity 69    
Minimum Humidity 22    
Precipitation  
Precipitation 0.00 in - - ()
Sea Level Pressure  
Sea Level Pressure 30.19 in    
Wind  
Wind Speed 11 mph (NNW)    
Max Wind Speed 21 mph    
Max Gust Speed 34 mph    
Visibility 10 miles    
Events      
Averages and records for this station are not official NWS values.
T = Trace of Precipitation, MM = Missing Value Source: NWS Daily Summary

Daily Weather History Graph

Daily Weather History Graph

Search for Another Location

Airport or City:

Astronomy

May. 03, 2013 Rise Set
Actual Time 6:41 AM CDT 8:20 PM CDT
Civil Twilight 6:13 AM CDT 8:47 PM CDT
Nautical Twilight 5:41 AM CDT 9:20 PM CDT
Astronomical Twilight 5:07 AM CDT 9:54 PM CDT
Moon 2:50 AM CDT (5/3) 2:30 PM CDT (5/3)
Length of Visible Light 14h 33m
Length of Day
13h 39m
Last Quarter, 37% of the Moon is Illuminated
May 3
Last Quarter
May 9
New
May 17
First Quarter
May 24
Full
May 31
Last Quarter

Hourly Weather History & Observations

Time (CDT) Temp. Windchill Dew Point Humidity Pressure Visibility Wind Dir Wind Speed Gust Speed Precip Events Conditions
12:58 AM 41.7 °F 37.3 °F 28.6 °F 60% 30.38 in 10.0 mi North 6.9 mph - N/A   Clear
1:58 AM 42.1 °F 35.7 °F 29.3 °F 61% 30.38 in 10.0 mi North 11.5 mph - N/A   Clear
2:58 AM 41.5 °F 35.4 °F 29.1 °F 61% 30.35 in 10.0 mi North 10.4 mph - N/A   Clear
3:58 AM 39.0 °F 34.0 °F 29.7 °F 69% 30.35 in 10.0 mi NNW 6.9 mph - N/A   Clear
4:58 AM 38.5 °F 33.4 °F 28.8 °F 68% 30.33 in 10.0 mi NNW 6.9 mph - N/A   Clear
5:58 AM 39.2 °F 34.2 °F 29.3 °F 68% 30.32 in 10.0 mi NNW 6.9 mph - N/A   Clear
6:58 AM 41.4 °F 34.3 °F 29.7 °F 63% 30.32 in 10.0 mi NNW 12.7 mph - N/A   Clear
7:58 AM 44.8 °F 39.4 °F 30.0 °F 56% 30.32 in 10.0 mi NW 10.4 mph - N/A   Clear
8:58 AM 49.8 °F - 30.0 °F 47% 30.32 in 10.0 mi North 12.7 mph - N/A   Clear
9:58 AM 53.2 °F - 28.4 °F 38% 30.31 in 10.0 mi NNW 15.0 mph - N/A   Clear
10:58 AM 55.8 °F - 29.8 °F 37% 30.28 in 10.0 mi NW 15.0 mph 19.6 mph N/A   Clear
11:26 AM 57.2 °F - 30.2 °F 36% 30.27 in 10.0 mi NW 15.0 mph 21.9 mph N/A   Clear
11:58 AM 58.5 °F - 29.8 °F 34% 30.26 in 10.0 mi NW 18.4 mph 21.9 mph N/A   Clear
12:38 PM 59.0 °F - 28.4 °F 31% 30.23 in 10.0 mi NNW 16.1 mph 21.9 mph N/A   Scattered Clouds
12:58 PM 58.8 °F - 26.4 °F 29% 30.22 in 10.0 mi North 13.8 mph 20.7 mph N/A   Mostly Cloudy
1:58 PM 62.1 °F - 27.0 °F 26% 30.18 in 10.0 mi North 13.8 mph 18.4 mph N/A   Partly Cloudy
2:11 PM 62.6 °F - 24.8 °F 24% 30.18 in 10.0 mi NW 16.1 mph 28.8 mph N/A   Partly Cloudy
2:23 PM 62.6 °F - 24.8 °F 24% 30.15 in 10.0 mi North 20.7 mph 34.5 mph N/A   Partly Cloudy
2:24 PM 62.6 °F - 26.6 °F 26% 30.16 in 10.0 mi North 20.7 mph 34.5 mph N/A   Partly Cloudy
2:40 PM 62.6 °F - 24.8 °F 24% 30.15 in 10.0 mi NNW 16.1 mph 29.9 mph N/A   Scattered Clouds
2:58 PM 63.3 °F - 26.4 °F 25% 30.14 in 10.0 mi NW 13.8 mph 25.3 mph N/A   Mostly Cloudy
3:43 PM 64.4 °F - 26.6 °F 24% 30.10 in 10.0 mi NW 16.1 mph 24.2 mph N/A   Mostly Cloudy
3:58 PM 62.8 °F - 24.6 °F 23% 30.10 in 10.0 mi NNW 18.4 mph 21.9 mph N/A   Scattered Clouds
4:58 PM 64.4 °F - 24.8 °F 22% 30.05 in 10.0 mi North 15.0 mph 21.9 mph N/A   Clear
5:58 PM 64.6 °F - 25.5 °F 23% 30.03 in 10.0 mi NW 10.4 mph 18.4 mph N/A   Clear
6:58 PM 63.5 °F - 26.4 °F 25% 30.02 in 10.0 mi North 11.5 mph - N/A   Clear
7:58 PM 60.4 °F - 28.0 °F 29% 30.01 in 10.0 mi NNE 5.8 mph - N/A   Clear
8:58 PM 55.6 °F - 29.1 °F 36% 30.02 in 10.0 mi NE 4.6 mph - N/A   Clear
9:58 PM 51.4 °F - 30.9 °F 45% 30.03 in 10.0 mi ENE 4.6 mph - N/A   Clear
10:58 PM 49.6 °F - 31.1 °F 49% 30.03 in 10.0 mi East 2.3 mph - N/A   Clear
11:58 PM 47.5 °F - 31.1 °F 53% 30.03 in 10.0 mi North 3.5 mph - N/A   Clear